Location: Jefferson
(30.9666°N, 81.7901°W)
Time: 13:14:55
(UTC+00:00)

ACS3 Solar Sail - Visible Passes

Search period start: 19 September 2024 00:00
Search period end: 29 September 2024 00:00
Orbit: 970 x 1035 km, 97.4° (Epoch: 18 September)

Date Brightness Start Highest point End Pass type
(mag) Time Alt. Az. Time Alt. Az. Time Alt. Az.
19 Sep 3.0 00:42:45 22° E 00:43:44 23° ENE 00:48:36 10° NNE visible
19 Sep 2.8 02:28:00 45° W 02:28:00 45° W 02:33:28 10° NNW visible
20 Sep 2.2 01:16:11 45° ENE 01:16:22 45° ENE 01:22:25 10° N visible
20 Sep 3.8 03:01:26 22° W 03:01:26 22° W 03:05:24 10° NW visible
21 Sep 3.7 00:04:55 10° ENE 00:06:07 11° ENE 00:07:20 10° NE visible
21 Sep 1.8 01:49:34 79° N 01:49:34 79° N 01:55:35 10° N visible
22 Sep 3.0 00:37:41 22° ENE 00:38:28 22° ENE 00:43:11 10° NNE visible
22 Sep 2.7 02:22:55 46° WNW 02:22:55 46° WNW 02:28:12 10° NNW visible
23 Sep 2.2 01:11:00 42° ENE 01:11:00 42° ENE 01:16:56 10° N visible
23 Sep 3.8 02:56:13 23° WNW 02:56:13 23° WNW 03:00:05 10° NW visible
24 Sep 1.9 01:44:15 72° NNE 01:44:15 72° NNE 01:50:01 10° N visible
24 Sep 4.6 03:29:29 10° WNW 03:29:29 10° WNW 03:29:55 10° WNW visible
25 Sep 3.1 00:32:15 20° ENE 00:32:50 21° ENE 00:37:21 10° NNE visible
25 Sep 2.7 02:17:28 46° WNW 02:17:28 46° WNW 02:22:33 10° NNW visible
26 Sep 2.3 01:05:25 40° ENE 01:05:25 40° ENE 01:11:03 10° N visible
26 Sep 3.8 02:50:39 24° WNW 02:50:39 24° WNW 02:54:23 10° NW visible
27 Sep 2.0 01:38:33 66° NNE 01:38:33 66° NNE 01:44:02 10° N visible
27 Sep 4.5 03:23:46 11° WNW 03:23:46 11° WNW 03:24:33 10° WNW visible
28 Sep 3.1 00:26:26 19° ENE 00:26:49 19° ENE 00:31:07 10° NNE visible
28 Sep 2.7 02:11:39 47° WNW 02:11:39 47° WNW 02:16:30 10° NNW visible
